Temp
10 10 10 11 10 10 11 13 14 14 13 13 13 13 12 12 12 12 11 12 13 12 12 12 11 10 10 10 9 9 9 9 9 9 9 9 9 9 9 9 9 9 9 9 9 9 9 9 9
10 10 10 10 9 10 12 14 14 13 13 13 12 12 12 12 12 12 12 12 12 12 12 12 11 11 10 10 10 9 9 9 9 9 8 8 8 8 8 8 8 8 8 8 8 8 8 8 8
10 10 10 9 10 10 12 14 14 14 13 13 12 12 12 12 12 12 12 12 12 12 12 12 11 11 10 10 9 9 9 9 9 8 8 8 8 8 8 8 7 7 7 7 7 7 7 7 8
9 9 9 9 10 12 13 14 12 13 13 12 12 12 12 12 12 13 12 12 12 12 11 11 11 11 10 10 9 9 9 9 8 8 8 8 7 7 7 7 7 7 7 7 7 7 7 7 7
9 9 9 9 10 11 12 13 13 12 12 12 12 12 12 12 13 12 12 12 11 12 11 11 11 10 10 10 9 9 8 8 8 8 7 6 7 7 7 7 8 8 7 7 7 7 7 7 7
8 9 8 9 10 11 12 13 13 11 12 12 12 12 12 12 12 12 11 12 11 12 11 11 10 10 10 9 9 8 7 7 7 7 7 6 7 8 8 8 8 8 7 7 7 7 7 7 7
8 8 8 9 11 12 13 13 13 12 12 12 12 12 12 12 12 11 11 11 11 11 11 10 10 10 9 9 8 7 7 7 7 7 7 7 7 8 8 8 8 7 7 7 7 7 7 7 7
8 8 8 9 10 11 12 11 12 12 12 12 12 12 12 12 12 11 11 11 11 11 11 10 10 9 9 8 7 7 7 7 7 7 7 7 8 7 7 7 7 7 7 7 7 6 6 6 6
7 7 7 9 9 10 12 12 11 9 11 11 10 11 11 11 11 11 11 11 11 11 10 10 10 9 8 8 7 7 7 7 7 7 7 7 7 7 7 7 7 7 6 6 6 6 6 6 6
7 7 8 8 9 10 11 11 11 10 9 11 10 11 11 12 11 11 11 11 11 10 10 10 9 9 8 7 7 7 7 7 7 7 7 7 7 7 7 6 6 6 6 6 6 6 6 6 5
6 8 8 8 9 9 10 10 10 10 10 11 10 10 11 11 11 11 11 11 10 10 9 9 9 9 8 8 6 7 7 7 7 7 7 6 7 6 6 6 6 6 5 5 5 5 5 5 5
6 6 6 7 8 9 9 9 10 9 8 9 10 10 10 11 11 11 11 10 10 10 9 8 7 8 7 9 6 7 7 6 6 6 6 6 6 6 6 6 5 5 5 5 5 4 4 4 5
5 6 6 7 7 8 8 8 9 9 9 10 10 9 9 10 11 11 10 9 10 9 9 8 8 6 6 6 6 6 6 6 6 6 6 6 6 5 5 5 5 5 5 4 4 4 4 4 4
6 6 6 6 6 7 7 8 8 9 9 9 9 10 9 10 9 9 9 7 8 9 8 8 8 8 6 6 5 6 5 5 6 5 6 5 5 5 5 5 5 4 4 4 4 4 4 4 4
4 5 6 6 7 7 7 7 8 9 9 8 9 10 9 10 9 8 10 8 7 8 8 8 7 7 6 7 6 6 5 5 5 5 5 5 5 5 5 4 4 4 4 3 3 3 3 3 3
5 4 4 7 6 7 6 8 9 7 8 9 9 8 10 8 9 8 10 8 8 7 8 8 7 6 7 7 6 5 5 5 5 5 4 4 4 4 4 4 4 4 3 3 3 3 3 3 3
5 5 6 6 7 7 7 7 7 8 8 9 9 9 9 8 8 7 7 8 7 6 6 8 7 6 6 6 5 5 5 5 5 4 5 5 4 4 4 4 3 3 3 3 3 3 3 3 3
5 5 5 5 7 7 7 7 7 7 8 8 8 8 9 8 8 8 8 8 6 6 6 8 7 7 5 6 5 5 5 4 4 5 5 5 4 4 4 3 3 3 3 3 2 2 2 2 2
4 4 4 4 5 5 6 7 7 7 7 8 9 9 9 8 8 8 8 7 9 6 7 6 8 7 7 5 5 4 4 4 4 4 4 4 4 3 3 3 3 3 2 2 2 2 2 2 2
3 3 4 4 4 4 5 6 7 7 7 8 8 8 7 8 8 8 8 7 7 8 6 7 8 7 7 6 5 5 4 4 4 4 4 4 4 3 3 3 3 2 2 2 2 2 2 2 1
3 3 3 4 4 4 5 5 6 7 7 8 7 8 8 8 8 7 9 7 7 8 7 7 7 7 6 6 5 4 4 5 4 4 4 3 3 3 3 2 2 2 2 2 1 1 1 1 0
2 3 3 3 3 4 4 5 6 7 8 8 7 8 7 7 8 7 6 7 9 7 6 7 7 6 6 5 5 5 4 4 3 3 3 3 3 3 2 2 2 1 1 1 0 0 0 0 0
2 2 2 2 3 4 4 4 6 7 8 8 6 8 8 7 7 7 7 7 7 7 7 8 7 6 6 5 5 5 4 4 4 3 3 3 3 2 2 2 1 1 0 -0 -0 -0 -0 -0 -0
2 2 2 2 2 2 4 4 4 5 7 8 7 7 7 7 7 7 7 7 6 6 7 7 7 6 6 5 5 5 5 4 3 3 3 2 2 2 1 1 0 0 0 -0 -0 -1 -1 -1 -2
2 0 -1 -0 1 2 3 2 3 5 6 7 8 7 6 7 8 6 7 6 7 7 7 7 7 6 6 5 5 4 4 3 2 2 2 2 2 1 1 0 0 -0 -0 -1 -1 -1 -2 -2 -2
2 2 -0 -1 1 1 0 0 1 2 5 8 7 7 7 7 7 6 6 6 6 6 6 6 6 6 6 5 5 4 4 3 2 2 2 1 1 1 0 -0 -0 -1 -1 -2 -2 -2 -3 -3 -3
3 2 -1 -1 -1 -0 -0 0 2 4 4 4 6 5 6 7 7 7 7 7 7 6 6 6 6 6 6 5 5 3 3 2 2 1 1 1 0 -0 -1 -1 -2 -2 -2 -3 -3 -3 -4 -4 -4
2 2 0 -1 1 1 3 5 5 5 5 6 6 6 7 7 7 7 7 7 6 6 6 5 6 6 5 4 3 3 3 2 1 1 1 0 -0 -1 -1 -2 -2 -3 -3 -4 -4 -4 -4 -4 -4
3 3 3 1 0 2 4 5 5 5 4 5 7 7 6 7 7 7 6 6 6 5 5 5 5 5 4 3 2 2 2 1 0 0 -0 -0 -1 -1 -2 -2 -3 -3 -4 -4 -4 -4 -5 -5 -5
4 4 4 2 1 0 1 4 5 4 4 5 5 6 6 6 6 6 5 5 5 5 5 5 5 3 3 2 2 1 1 1 0 -0 -0 -1 -2 -2 -3 -3 -4 -4 -4 -4 -5 -5 -6 -6 -6
Height
3164 3165 3165 3166 3169 3165 3162 3160 3160 3160 3163 3161 3161 3163 3165 3161 3162 3166 3162 3162 3162 3163 3163 3164 3164 3165 3166 3166 3167 3167 3168 3169 3169 3170 3170 3170 3170 3171 3171 3171 3171 3171 3171 3171 3170 3170 3169 3169 3169
3161 3163 3164 3164 3164 3162 3157 3156 3158 3158 3158 3159 3160 3159 3162 3159 3161 3161 3162 3162 3161 3163 3163 3163 3164 3164 3165 3166 3166 3167 3167 3168 3169 3169 3170 3170 3170 3170 3171 3171 3171 3171 3171 3171 3171 3170 3170 3170 3169
3159 3160 3162 3161 3160 3158 3154 3155 3157 3154 3155 3157 3159 3159 3159 3157 3159 3159 3160 3161 3160 3162 3163 3163 3163 3164 3164 3165 3166 3166 3167 3168 3168 3169 3169 3169 3170 3171 3171 3171 3171 3171 3171 3171 3171 3171 3171 3171 3170
3156 3157 3159 3156 3155 3155 3152 3153 3155 3149 3149 3152 3156 3156 3158 3157 3157 3158 3159 3159 3160 3161 3162 3162 3163 3163 3164 3165 3165 3166 3166 3167 3168 3168 3169 3169 3170 3171 3171 3172 3172 3172 3171 3172 3171 3172 3171 3171 3171
3151 3152 3152 3153 3152 3152 3148 3150 3151 3152 3147 3144 3150 3152 3153 3155 3156 3158 3158 3158 3158 3161 3161 3161 3162 3163 3163 3164 3165 3165 3166 3167 3168 3168 3168 3168 3170 3170 3171 3171 3171 3171 3171 3171 3171 3171 3171 3171 3170
3147 3149 3148 3148 3148 3148 3147 3147 3145 3141 3149 3145 3145 3146 3151 3153 3155 3157 3157 3157 3157 3159 3159 3160 3161 3161 3162 3163 3164 3165 3166 3166 3167 3168 3168 3169 3170 3170 3170 3170 3170 3170 3170 3170 3170 3170 3170 3170 3169
3142 3144 3143 3145 3145 3143 3145 3147 3150 3148 3152 3145 3145 3144 3148 3149 3153 3155 3156 3157 3156 3158 3159 3159 3160 3160 3161 3162 3163 3164 3166 3167 3167 3168 3168 3168 3168 3169 3169 3169 3169 3169 3169 3169 3169 3169 3169 3169 3169
3139 3140 3138 3140 3142 3139 3140 3140 3143 3141 3145 3143 3145 3143 3144 3147 3151 3154 3154 3155 3155 3156 3157 3158 3159 3159 3160 3162 3163 3164 3165 3166 3166 3167 3167 3167 3168 3168 3167 3167 3167 3167 3167 3167 3167 3168 3168 3168 3168
3135 3134 3130 3134 3138 3138 3138 3141 3133 3135 3141 3145 3143 3142 3142 3145 3148 3152 3153 3154 3155 3155 3155 3156 3157 3159 3160 3161 3162 3163 3164 3165 3166 3166 3166 3166 3166 3166 3166 3166 3166 3166 3166 3166 3167 3167 3168 3168 3168
3127 3126 3125 3134 3137 3137 3136 3136 3137 3134 3137 3143 3142 3140 3140 3142 3146 3149 3152 3153 3154 3154 3154 3155 3156 3157 3159 3160 3162 3163 3163 3164 3165 3164 3164 3165 3166 3165 3165 3165 3165 3165 3165 3166 3166 3167 3167 3168 3168
3123 3117 3125 3127 3131 3132 3130 3127 3136 3131 3128 3139 3142 3141 3138 3140 3144 3147 3150 3151 3152 3153 3153 3153 3155 3156 3158 3159 3161 3162 3163 3164 3164 3164 3163 3164 3164 3164 3164 3164 3164 3164 3165 3165 3166 3167 3167 3168 3168
3119 3118 3121 3124 3125 3126 3125 3123 3125 3124 3129 3137 3140 3137 3135 3138 3142 3145 3147 3149 3151 3152 3152 3153 3153 3155 3156 3159 3160 3161 3162 3162 3163 3163 3163 3163 3163 3163 3164 3163 3163 3164 3164 3165 3166 3166 3167 3167 3168
3114 3115 3116 3118 3119 3119 3121 3118 3120 3125 3133 3133 3134 3133 3132 3135 3140 3143 3144 3146 3147 3150 3151 3152 3153 3155 3154 3156 3159 3159 3160 3162 3162 3162 3162 3162 3162 3162 3162 3162 3162 3163 3164 3164 3165 3165 3166 3167 3167
3110 3109 3108 3110 3112 3114 3115 3115 3115 3116 3127 3125 3130 3130 3130 3133 3137 3140 3141 3142 3143 3146 3149 3150 3151 3154 3153 3157 3157 3158 3159 3161 3161 3160 3160 3161 3161 3161 3161 3161 3161 3161 3162 3163 3163 3164 3165 3165 3166
3105 3104 3103 3104 3107 3106 3111 3107 3102 3109 3118 3120 3120 3125 3128 3131 3134 3137 3138 3141 3141 3143 3147 3148 3149 3151 3151 3153 3155 3156 3158 3160 3160 3160 3158 3158 3159 3159 3159 3159 3159 3160 3160 3161 3161 3162 3162 3163 3163
3102 3101 3098 3098 3100 3100 3106 3090 3101 3107 3111 3114 3115 3118 3124 3128 3129 3133 3133 3137 3139 3139 3144 3146 3147 3146 3149 3150 3153 3155 3157 3157 3157 3157 3157 3158 3156 3157 3157 3157 3158 3158 3158 3158 3159 3159 3160 3160 3161
3100 3095 3095 3095 3098 3098 3097 3087 3097 3102 3105 3109 3114 3114 3120 3125 3126 3128 3130 3131 3134 3137 3141 3144 3146 3142 3147 3149 3151 3151 3153 3154 3155 3156 3155 3154 3153 3154 3156 3155 3155 3155 3156 3156 3157 3157 3157 3157 3157
3096 3093 3090 3090 3092 3093 3091 3085 3092 3096 3098 3101 3108 3108 3113 3118 3120 3121 3126 3124 3114 3135 3139 3139 3142 3143 3145 3145 3147 3149 3150 3151 3152 3153 3152 3151 3151 3152 3153 3153 3153 3153 3154 3154 3154 3154 3154 3154 3153
3092 3091 3089 3087 3086 3085 3082 3083 3086 3089 3092 3094 3098 3103 3107 3110 3116 3115 3119 3121 3119 3124 3126 3131 3137 3140 3142 3141 3143 3146 3147 3149 3150 3149 3148 3149 3149 3149 3150 3150 3150 3151 3150 3151 3151 3150 3150 3149 3148
3089 3087 3084 3082 3082 3082 3079 3076 3079 3084 3086 3090 3094 3097 3097 3102 3108 3108 3113 3115 3118 3122 3107 3126 3131 3136 3137 3136 3139 3140 3140 3145 3146 3145 3144 3145 3146 3147 3147 3147 3148 3148 3147 3146 3147 3146 3146 3145 3143
3085 3083 3080 3079 3077 3075 3075 3072 3072 3076 3080 3084 3088 3093 3095 3097 3102 3103 3108 3113 3114 3118 3119 3123 3128 3131 3133 3133 3135 3136 3138 3141 3141 3141 3141 3142 3143 3143 3143 3144 3144 3143 3143 3143 3142 3141 3141 3140 3139
3080 3078 3076 3074 3073 3071 3072 3068 3067 3071 3074 3077 3081 3086 3089 3095 3098 3102 3103 3107 3109 3113 3118 3121 3125 3127 3130 3129 3130 3131 3134 3136 3136 3137 3138 3139 3139 3139 3139 3139 3139 3139 3138 3138 3137 3134 3134 3133 3132
3076 3074 3072 3072 3069 3068 3066 3068 3060 3064 3067 3069 3076 3079 3085 3090 3093 3097 3100 3104 3108 3111 3113 3116 3120 3123 3126 3126 3127 3128 3130 3130 3131 3134 3134 3135 3135 3134 3135 3135 3134 3134 3133 3131 3129 3128 3126 3124 3123
3074 3071 3068 3066 3066 3064 3060 3063 3055 3059 3063 3066 3071 3077 3080 3083 3089 3093 3096 3099 3102 3105 3109 3112 3115 3118 3120 3119 3122 3125 3125 3126 3128 3129 3130 3129 3130 3130 3130 3130 3129 3127 3127 3126 3123 3122 3121 3118 3114
3072 3068 3067 3067 3063 3058 3057 3059 3051 3053 3056 3059 3060 3070 3077 3080 3085 3089 3093 3095 3097 3101 3106 3106 3109 3113 3115 3117 3119 3120 3121 3123 3124 3125 3125 3124 3123 3125 3125 3124 3123 3121 3121 3119 3117 3114 3112 3110 3107
3072 3070 3071 3068 3056 3052 3052 3055 3057 3051 3053 3054 3055 3064 3072 3075 3079 3084 3089 3093 3097 3100 3102 3103 3105 3108 3111 3113 3114 3116 3117 3119 3119 3120 3119 3119 3119 3119 3120 3119 3116 3114 3113 3111 3108 3106 3104 3101 3098
3073 3072 3067 3064 3054 3055 3049 3055 3058 3052 3059 3053 3058 3059 3065 3071 3077 3081 3085 3089 3092 3095 3098 3100 3102 3105 3106 3108 3110 3112 3113 3114 3115 3114 3115 3113 3113 3112 3110 3110 3108 3106 3103 3101 3099 3096 3094 3090 3085
3078 3075 3067 3060 3057 3064 3061 3058 3060 3061 3060 3058 3062 3066 3070 3073 3077 3079 3082 3085 3088 3091 3094 3097 3099 3101 3103 3104 3106 3108 3110 3110 3109 3109 3110 3109 3109 3106 3105 3102 3100 3098 3095 3092 3088 3085 3081 3078 3074
3079 3076 3073 3069 3066 3068 3064 3068 3067 3066 3065 3063 3063 3067 3070 3073 3075 3077 3080 3083 3086 3089 3092 3094 3096 3098 3099 3101 3104 3105 3105 3105 3104 3104 3103 3102 3101 3100 3097 3094 3092 3089 3085 3082 3078 3074 3070 3065 3063
3080 3079 3077 3075 3076 3074 3073 3076 3072 3069 3068 3067 3067 3069 3072 3074 3076 3078 3080 3082 3085 3087 3089 3091 3092 3095 3098 3100 3100 3101 3100 3099 3098 3097 3096 3095 3093 3091 3088 3086 3083 3079 3075 3070 3066 3063 3060 3057 3054
Wind_Speed
13 12 9 9 7 6 12 17 7 4 4 8 7 7 4 6 7 5 4 7 5 3 4 5 6 6 5 4 4 4 5 5 5 5 4 4 3 1 1 2 3 4 4 5 5 6 7 7 7
17 14 12 7 10 14 23 14 13 7 11 8 6 7 3 11 10 13 10 5 5 3 4 5 6 5 6 5 5 4 5 6 5 5 4 4 3 1 1 1 2 3 4 5 6 7 8 8 8
16 16 14 11 15 21 22 6 7 11 11 9 4 7 7 11 6 11 7 6 6 4 3 5 6 6 6 6 5 5 5 5 5 4 4 3 2 0 1 2 4 4 4 5 6 6 6 6 7
18 17 18 19 23 18 17 15 13 12 14 8 5 4 9 9 6 5 6 6 7 5 4 5 6 6 6 6 5 5 6 5 5 4 3 3 3 4 4 3 2 2 2 3 3 4 4 5 5
20 20 19 17 24 23 21 20 11 13 13 12 11 8 11 12 5 5 5 6 5 2 4 5 5 6 6 6 7 7 7 6 5 3 3 6 7 5 2 3 5 5 5 5 6 6 6 5 5
22 22 18 23 25 22 22 21 24 10 12 9 12 12 15 10 7 6 6 5 5 2 4 5 6 6 6 7 7 7 7 6 6 6 7 8 2 4 5 7 7 8 9 8 8 8 6 5 4
26 23 21 22 25 25 24 22 13 10 12 13 12 14 14 11 9 7 7 6 5 2 4 5 6 7 7 7 7 7 6 5 6 6 7 8 8 8 7 8 8 8 8 8 7 6 5 4 3
27 26 29 25 27 31 22 20 36 8 12 12 15 17 18 11 10 9 8 6 5 2 3 4 6 7 8 8 8 7 6 6 5 6 7 8 9 7 7 7 6 6 6 6 4 3 3 2 1
24 29 33 33 25 25 22 24 14 16 11 19 12 11 13 14 12 11 9 7 5 4 3 3 5 6 7 8 8 7 5 4 4 5 5 6 5 6 6 6 5 4 4 3 3 2 1 1 1
31 34 40 23 22 25 28 26 23 19 14 16 15 16 18 12 14 12 9 7 6 5 4 3 5 6 9 9 8 7 5 3 3 4 4 5 4 4 5 5 5 4 3 2 1 1 1 1 1
28 38 33 22 26 26 27 30 17 25 8 15 19 22 22 15 14 14 11 9 7 6 6 4 4 2 10 12 9 7 4 4 1 2 5 6 7 6 5 4 4 3 3 2 2 2 2 2 2
26 27 24 25 28 26 27 30 29 19 21 16 18 24 22 18 17 16 14 12 10 9 9 8 8 7 9 6 11 8 3 2 1 4 6 6 6 6 6 5 4 4 3 3 3 3 3 4 5
23 23 24 25 26 30 31 32 34 24 15 25 20 21 16 17 19 19 18 15 13 12 12 13 13 13 14 8 9 9 5 4 2 4 7 8 8 7 7 6 5 5 4 4 4 5 5 6 7
18 15 19 24 28 29 24 33 30 39 24 24 24 23 24 22 19 21 20 21 18 16 14 15 15 12 17 13 13 13 12 8 6 6 7 7 9 8 8 7 6 6 5 6 7 7 8 9 10
16 22 24 28 27 28 27 33 44 39 26 24 25 23 27 27 28 25 24 25 23 19 15 15 17 14 13 17 16 14 13 13 12 8 6 7 9 9 9 8 7 7 7 8 9 10 10 11 12
22 22 26 24 19 20 21 45 38 29 26 28 23 22 22 26 29 27 33 25 23 21 18 16 17 22 18 17 15 14 14 17 18 11 18 16 11 11 10 9 9 9 10 11 11 12 12 13 13
12 23 21 22 17 20 26 38 32 28 24 31 32 32 28 29 29 29 30 31 25 21 20 18 19 21 20 14 16 16 16 17 20 18 13 12 10 11 12 11 11 12 12 12 13 13 15 15 15
20 23 25 25 18 18 25 36 27 24 29 33 30 31 23 27 32 34 33 35 31 19 23 26 17 14 19 19 22 19 18 16 16 12 9 9 10 13 14 13 12 14 13 14 15 15 15 16 18
21 22 27 29 27 26 26 26 28 25 28 34 28 39 31 32 30 34 36 41 46 30 38 30 19 15 22 24 24 22 18 16 16 12 11 10 12 15 15 15 14 14 14 15 15 16 18 19 21
21 26 27 28 23 23 28 31 28 27 30 29 27 30 34 30 27 28 27 31 31 37 31 22 25 24 32 28 24 20 18 19 18 14 13 14 14 16 17 16 17 16 16 17 18 19 20 22 25
21 24 25 26 23 24 24 30 27 29 28 31 31 29 29 25 30 30 27 28 31 36 32 31 21 22 25 25 24 19 21 21 18 15 16 16 16 16 17 17 18 19 18 19 21 22 23 25 26
20 17 21 22 21 18 20 19 30 27 31 34 33 35 31 28 28 30 30 31 33 33 32 29 23 23 26 25 23 22 23 20 19 19 18 18 18 17 17 19 20 22 22 21 23 26 29 31 32
24 22 21 18 23 23 26 21 28 30 34 38 30 32 35 30 33 31 26 28 30 33 36 31 26 27 30 28 23 24 22 24 23 20 20 19 19 18 19 21 22 22 23 26 29 31 34 37 38
18 17 17 20 17 15 25 16 15 21 27 36 30 28 28 28 30 32 29 26 28 35 36 33 32 30 29 27 24 25 26 25 21 22 24 19 20 19 20 21 23 26 28 30 33 35 35 37 40
13 8 7 4 2 5 7 11 27 9 7 29 41 30 32 33 30 32 33 32 32 30 29 31 31 28 27 23 25 26 27 24 24 23 25 20 22 21 22 24 27 31 32 35 36 37 38 39 41
15 9 2 4 2 3 9 8 7 3 6 12 31 39 36 26 24 27 31 31 32 32 29 26 29 29 24 24 27 25 24 22 25 26 24 23 25 26 26 28 32 35 35 35 37 38 39 41 44
13 12 15 5 10 4 6 6 2 10 3 9 21 23 28 22 19 19 19 22 22 22 26 31 30 27 24 25 24 23 23 24 29 24 21 25 26 30 32 32 33 34 36 37 38 41 43 45 47
14 14 10 7 4 5 7 22 16 12 8 4 7 10 13 14 14 16 19 22 24 24 25 27 23 23 21 21 23 23 24 30 22 25 26 27 29 32 32 33 34 35 37 39 42 45 46 45 44
13 15 12 15 9 3 3 12 16 14 7 7 10 14 13 11 11 13 15 17 16 16 16 18 19 19 21 22 25 22 29 24 25 26 28 31 33 32 33 35 35 38 41 43 43 43 41 40 39
16 16 13 8 6 12 4 14 20 12 7 9 6 5 6 7 8 9 9 10 11 13 14 17 17 16 17 21 22 27 21 24 27 30 32 31 33 34 35 37 39 42 42 41 38 37 37 36 35
Wind_Direction
242 249 257 267 265 254 251 252 242 255 248 216 184 159 198 249 211 230 247 269 266 211 212 206 206 207 214 226 214 214 210 213 208 205 212 217 208 223 295 339 354 0 6 10 13 15 11 19 23
240 245 252 241 241 258 256 245 225 214 220 225 212 206 208 258 242 242 262 254 255 199 219 213 214 215 212 225 220 218 200 199 205 207 210 230 241 243 277 330 357 23 31 35 41 43 40 39 44
240 242 241 247 245 243 258 340 211 192 210 255 191 175 204 243 240 226 221 240 257 238 231 233 231 221 221 223 218 204 198 197 202 214 220 223 232 215 87 88 81 59 55 56 55 49 38 34 29
238 238 240 232 247 249 255 275 207 215 230 208 193 236 242 253 227 194 220 244 265 273 232 245 243 236 231 224 212 196 186 184 176 168 183 183 150 135 136 109 35 17 5 4 360 352 348 350 350
231 227 236 238 250 251 245 248 253 219 210 192 183 220 253 235 229 217 234 249 263 309 267 256 243 239 236 219 199 184 172 167 174 190 205 164 148 148 197 274 286 292 287 292 301 309 313 321 323
225 229 229 240 247 253 261 256 271 218 212 187 184 211 240 232 223 230 238 251 260 296 274 258 245 233 222 214 201 189 184 182 165 154 155 148 196 260 281 285 283 281 279 284 291 297 303 307 311
224 222 235 242 252 254 256 253 254 217 211 209 193 216 243 218 220 225 230 233 254 272 259 249 233 222 217 211 204 200 194 197 197 203 224 260 279 284 288 284 282 285 290 292 295 300 306 310 315
227 229 233 234 251 260 255 277 252 237 227 223 235 211 234 247 222 223 226 234 254 265 254 251 231 222 217 215 204 201 209 219 229 249 263 276 288 301 297 293 292 288 288 295 303 310 312 322 347
224 229 238 233 237 256 264 279 297 228 244 238 213 227 230 240 221 221 223 229 245 263 240 232 234 229 221 212 209 210 215 244 263 271 279 288 308 303 299 298 295 293 296 303 311 314 326 350 9
226 234 239 233 241 252 265 268 284 273 211 229 227 229 226 224 218 218 224 232 235 243 260 219 225 227 215 206 200 202 233 236 263 275 294 304 305 308 306 308 306 302 296 289 273 258 250 243 240
235 245 243 239 238 252 262 257 276 245 225 223 226 219 228 220 214 216 223 230 230 223 232 242 250 200 197 187 193 207 205 196 215 305 319 339 329 329 315 305 299 298 296 284 265 249 238 236 242
241 250 253 260 238 237 245 260 248 285 216 245 216 227 238 221 221 221 227 230 233 218 215 211 224 217 209 182 195 200 190 109 11 338 331 329 321 321 312 305 299 289 272 253 238 233 241 250 255
241 251 253 247 251 242 245 244 251 240 229 251 235 213 240 231 223 218 221 222 229 222 211 206 215 187 222 211 208 234 227 246 299 339 328 310 310 315 314 307 297 282 277 263 250 248 250 255 264
254 231 242 242 242 239 247 253 240 239 226 249 244 239 222 239 233 217 215 210 224 227 216 216 218 211 215 222 233 248 249 248 265 300 315 301 296 305 309 302 293 279 265 259 256 256 257 261 263
265 269 261 252 245 249 232 247 240 242 232 251 261 246 221 237 224 218 236 222 215 228 218 218 215 222 221 255 237 264 273 268 267 278 311 304 291 294 299 298 287 272 267 264 263 262 263 267 273
274 273 272 276 268 274 228 253 251 244 231 225 253 240 236 221 226 221 236 232 223 223 220 215 211 210 230 246 253 266 262 258 270 288 320 278 289 283 286 288 281 273 267 266 269 273 277 278 283
289 268 273 279 269 260 242 261 263 247 228 218 234 239 244 212 224 216 222 222 215 214 237 225 206 229 235 260 240 256 259 266 269 283 284 282 265 267 273 275 271 268 267 272 274 275 280 282 284
295 300 293 291 267 272 262 256 262 250 227 224 231 232 228 213 217 216 215 224 189 208 236 245 211 245 243 265 256 250 258 264 268 270 295 303 278 264 265 269 270 277 276 277 276 280 281 285 289
293 287 286 285 285 286 269 265 256 248 238 223 226 228 230 221 226 229 225 225 263 244 235 233 224 273 273 259 254 257 258 257 260 276 300 299 277 266 269 274 281 284 281 281 284 286 288 292 294
288 286 280 287 283 273 271 267 252 241 243 221 219 207 222 211 231 237 232 227 226 247 200 225 254 264 269 256 253 269 244 255 260 273 292 304 296 280 276 278 282 283 284 286 285 287 291 294 294
286 285 282 280 281 272 270 265 256 241 232 235 228 219 230 231 220 230 226 217 216 218 232 236 258 262 255 258 258 263 247 258 260 269 287 300 302 288 278 278 278 281 279 279 281 283 285 287 292
302 302 282 279 284 265 258 271 250 245 233 226 222 223 218 217 210 216 214 216 228 222 228 231 254 256 257 253 261 265 259 261 258 264 277 291 298 288 276 274 275 277 280 281 285 291 292 293 292
295 296 289 282 269 270 264 274 258 234 231 216 218 214 216 202 200 213 223 226 230 228 228 240 253 253 250 255 252 263 260 258 263 266 271 283 289 283 276 275 277 280 285 290 291 292 294 294 294
300 293 294 285 273 273 254 247 262 238 250 208 211 212 210 212 211 217 227 227 222 226 235 243 242 251 254 254 253 261 258 265 263 255 271 274 279 279 278 280 282 284 286 287 289 289 290 292 294
345 324 12 311 271 249 273 215 252 278 253 211 213 221 214 220 217 217 223 225 236 239 240 236 243 254 264 251 255 259 255 264 255 258 266 273 283 282 282 285 283 283 285 286 289 290 290 290 289
348 359 359 298 304 285 234 214 299 165 69 156 186 189 201 210 212 211 217 227 232 236 241 240 244 262 265 252 254 251 257 255 252 259 270 279 278 285 286 282 283 285 286 285 286 286 288 289 290
341 336 315 273 301 257 75 69 125 71 110 178 169 177 184 204 218 215 223 225 224 230 231 239 250 255 250 250 255 248 252 255 256 267 268 277 285 288 289 287 284 285 287 289 289 291 292 292 291
338 347 327 316 344 36 120 46 40 61 100 154 144 190 208 218 220 225 226 227 228 229 234 244 242 246 249 246 238 247 256 255 260 265 275 279 282 283 283 284 286 287 289 292 293 293 293 292 292
340 344 339 356 11 28 19 28 24 67 77 125 200 196 192 202 214 217 222 228 232 229 231 235 240 242 241 241 246 260 253 261 266 276 278 280 282 283 284 286 289 292 294 294 293 294 295 295 296
359 349 355 10 21 13 322 51 23 64 45 39 87 147 181 198 201 208 210 215 220 227 234 241 243 236 229 240 247 260 263 272 275 278 282 282 283 286 288 291 294 295 295 296 297 296 295 295 294